Weather History for FAGG - November, 2012

Change the Weather History Date:

Thursday, November 8, 2012

  Actual Average Record
Temperature  
Mean Temperature 61 °F -  
Max Temperature 67 °F 70 °F 79 °F (2014)
Min Temperature 55 °F 54 °F 46 °F (1998)
Degree Days  
Heating Degree Days 4    
Growing Degree Days 11 (Base 50)    
Moisture  
Dew Point 53 °F    
Average Humidity 76    
Maximum Humidity 94    
Minimum Humidity 53    
Precipitation  
Precipitation 0.00 in - - ()
Sea Level Pressure  
Sea Level Pressure 30.12 in    
Wind  
Wind Speed 9 mph ()    
Max Wind Speed 24 mph    
Max Gust Speed -    
Visibility 7.9 miles    
Events      
Averages and records for this station are not official NWS values.
T = Trace of Precipitation, MM = Missing Value Source: Averaged Metar Reports

Daily Weather History Graph

Daily Weather History Graph

Search for Another Location

Airport or City:

Trip Planner

Search our weather history database for the weather conditions in past years. The results will help you decide how hot, cold, wet, or windy it might be!

Date:

Astronomy

Nov. 08, 2012 Rise Set
Actual Time 5:23 AM SAST 7:05 PM SAST
Civil Twilight 4:56 AM SAST 7:32 PM SAST
Nautical Twilight 4:23 AM SAST 8:05 PM SAST
Astronomical Twilight 3:49 AM SAST 8:39 PM SAST
Moon 1:31 AM SAST (11/8) 1:17 PM SAST (11/8)
Length of Visible Light 14h 36m
Length of Day
13h 42m
Waning Crescent, 36% of the Moon is Illuminated
Nov 8
Waning Crescent
Nov 14
New
Nov 20
First Quarter
Nov 28
Full
Dec 6
Last Quarter

Hourly Weather History & Observations

Time (SAST) Temp. Dew Point Humidity Pressure Visibility Wind Dir Wind Speed Gust Speed Precip Events Conditions
12:00 AM 59.0 °F 55.4 °F 88% 30.27 in 6.2 mi ESE 4.6 mph - N/A   Mostly Cloudy
1:00 AM 59.0 °F 55.4 °F 88% 30.24 in 6.2 mi ESE 5.8 mph - N/A   Mostly Cloudy
2:00 AM 59 °F 54 °F 80% 30.25 in 6 mi ESE 6.9 mph - -  
2:00 AM 59.0 °F 55.4 °F 88% 30.24 in 6.2 mi ESE 5.8 mph - N/A   Mostly Cloudy
3:00 AM 59.0 °F 53.6 °F 82% 30.24 in 6.2 mi East 5.8 mph - N/A   Mostly Cloudy
4:00 AM 55.4 °F 53.6 °F 94% 30.21 in 6.2 mi East 3.5 mph - N/A   Mostly Cloudy
5:00 AM 57 °F 53 °F 84% 30.23 in 12 mi East 5.8 mph - -   Mostly Cloudy
5:00 AM 57.2 °F 53.6 °F 88% 30.21 in 6.2 mi East 4.6 mph - N/A   Mostly Cloudy
6:00 AM 57.2 °F 53.6 °F 88% 30.21 in 6.2 mi East 4.6 mph - N/A   Scattered Clouds
7:00 AM 60.8 °F 55.4 °F 82% 30.21 in 6.2 mi East 5.8 mph - N/A   Scattered Clouds
8:00 AM 63 °F 54 °F 64% 30.23 in 12 mi East 12.7 mph - -   Partly Cloudy
8:00 AM 62.6 °F 55.4 °F 77% 30.21 in 6.2 mi East 12.7 mph - N/A   Scattered Clouds
9:00 AM 62.6 °F 53.6 °F 72% 30.21 in 6.2 mi ESE 16.1 mph - N/A   Scattered Clouds
10:00 AM 66.2 °F 53.6 °F 64% 30.18 in 6.2 mi ESE 18.4 mph - N/A   Scattered Clouds
11:00 AM 66 °F 53 °F 53% 30.14 in 19 mi ESE 21.9 mph - -   Scattered Clouds
11:00 AM 66.2 °F 51.8 °F 60% 30.15 in 6.2 mi ESE 19.6 mph - N/A   Partly Cloudy
12:00 PM 66.2 °F 53.6 °F 64% 30.12 in 6.2 mi ESE 20.7 mph - N/A   Partly Cloudy
1:00 PM 66.2 °F 53.6 °F 64% 30.09 in 6.2 mi ESE 21.9 mph - N/A   Partly Cloudy
2:00 PM 65 °F 53 °F 57% 30.08 in 12 mi ESE 24.2 mph - -   Scattered Clouds
2:00 PM 66.2 °F 53.6 °F 64% 30.06 in 6.2 mi East 17.3 mph - N/A   Partly Cloudy
3:00 PM 64.4 °F 53.6 °F 68% 30.04 in 6.2 mi East 21.9 mph - N/A   Partly Cloudy
4:00 PM 64.4 °F 53.6 °F 68% 30.04 in 6.2 mi ESE 24.2 mph - N/A   Partly Cloudy
5:00 PM 62 °F 53 °F 63% 30.01 in 12 mi ESE 21.9 mph - -   Scattered Clouds
5:00 PM 62.6 °F 51.8 °F 68% 30.01 in 6.2 mi East 17.3 mph - N/A   Partly Cloudy
6:00 PM 59.0 °F 51.8 °F 77% 29.98 in - ESE 16.1 mph - N/A   Clear
7:00 PM 59.0 °F 51.8 °F 77% 29.98 in - ESE 12.7 mph - N/A   Clear
8:00 PM 57 °F 53 °F 80% 29.99 in 12 mi ESE 11.5 mph - -   Clear
8:00 PM 57.2 °F 51.8 °F 82% 29.98 in - ESE 12.7 mph - N/A   Clear
9:00 PM 57.2 °F 51.8 °F 82% 29.95 in - East 6.9 mph - N/A   Clear
10:00 PM 55.4 °F 51.8 °F 88% 29.95 in - Variable 2.3 mph - N/A   Clear
11:00 PM 55.4 °F 51.8 °F 88% 29.92 in - Variable 2.3 mph - N/A   Clear